Regional Weather Roundup
Issued by NWS

Home | Current Version | Previous Version | Graphics & Text | Print | Product List | Glossary On
Versions: 1 2 3 4 5 6 7 8 9 10 11 12 13 14 15 16 17 18 19 20 21 22 23 24 25 26 27 28 29 30 31 32 33 34 35 36 37 38 39 40 41 42 43 44 45 46 47 48 49 50
000
ASUS45 KSLC 210510
RWRUT

UTAH REGIONAL WEATHER ROUNDUP
NATIONAL WEATHER SERVICE SALT LAKE CITY UT
1100 PM MDT WED AUG 20 2014

UTZ001>011-023>025-210600-

NORTHERN UTAH

CITY           SKY/WX    TMP DP  RH WIND       PRES   REMARKS
HILL AFB       LGT RAIN  59  54  82 E12       30.09F
LOGAN          CLOUDY    61  55  81 S20G26    30.03F
OGDEN          LGT RAIN  63  55  75 SE9       30.07R
PROVO AIRPORT  CLOUDY    70  52  52 CALM      30.05S
SALT LAKE CITY CLOUDY    65  53  65 N20       30.05R
VERNAL         LGT RAIN  60  52  74 N8        30.10R
WENDOVER       CLOUDY    72  48  43 E6        29.96R
HEBER CITY     CLOUDY    57  50  77 CALM      30.12S
WEST JORDAN    CLOUDY    64  57  77 NW15      30.08R

$$

UTZ012>022-026-027-210600-

SOUTHERN UTAH

CITY           SKY/WX    TMP DP  RH WIND       PRES   REMARKS
BRYCE CANYON   PTCLDY    48  45  89 NE7       30.27S
CEDAR CITY     CLEAR     61  45  55 S9        30.13R
MILFORD        NOT AVBL
MOAB/CYNLANDS  CLEAR     64  55  72 CALM      30.04R
PRICE          PTCLDY    61  49  64 N5        30.13S
ST GEORGE      CLOUDY    73  54  49 E15       29.98R
KANAB            N/A     57  48  72 CALM      30.16

$$

REGIONAL REPORTS     COLORADO/ARIZONA

CITY           SKY/WX    TMP DP  RH WIND       PRES   REMARKS
CRAIG, CO      MOCLDY    56  50  80 SE10      30.13F
GRAND JUNCTION MOCLDY    65  49  56 N8        30.05S
RIFLE          MOCLDY    66  49  54 VRB3      30.11R
MONTROSE       CLOUDY    66  49  54 SE7       30.14F
CORTEZ         CLEAR     61  46  57 CALM      30.17R
PAGE, AZ       PTCLDY    76  42  29 W3        30.06S
GRAND CANYON     N/A    N/A N/A N/A MISG        N/A
KINGMAN        MOCLDY    77  50  38 S8        30.00S
FLAGSTAFF      PTCLDY    53  47  79 CALM      30.28S

$$

REGIONAL REPORTS    NEVADA/IDAHO/WYOMING

CITY           SKY/WX    TMP DP  RH WIND       PRES   REMARKS
LAS VEGAS, NV  PTCLDY    84  51  31 S12       29.86R
ELY            PTCLDY    61  45  55 S10       30.12R
ELKO           MOCLDY    71  40  32 NW12      29.96R
POCATELLO, ID  PTCLDY    58  54  86 N13       29.97R
BURLEY         MOCLDY    66  50  56 W10G17    29.95R
EVANSTON, WY   RAIN      52  48  86 NW7       30.23R
ROCK SPRINGS   LGT RAIN  55  47  74 N10       30.17R

$$


USA.gov is the U.S. government's official web portal to all federal, state and local government web resources and services.